Back to catalog

STARLINK-37383

AliveCommunicationsVLEO
NORAD 69379·PAYLOAD·🇺🇸 United States

Launched Jun 4, 2026 from Cape Canaveral Space Force Station

Loading…

Next Passes (next 24 hours)

TLE

FreshSource: CelesTrak SupGP

Epoch: Sep 15, 2026, 02:47 UTC

1 69379C 26123AC  26258.11645833 -.00008139  00000+0 -24048-3 0  2583
2 69379  53.1579 166.9735 0001370  78.5289 225.2220 15.34394260    16

Track STARLINK-37383 in real time with AllMySat

Download on the App Store